Stations météo

réclame
Mon MeteoGroup
Gotska sandoen, Suède (2589): Température de l'air & dewpoint: 14.08.2018 01:00:00 - 20.08.2018 01:00:00 (CEST)Gotska sandoen, Suède (2589): Vitesse du vent & gusts: 14.08.2018 01:00:00 - 20.08.2018 01:00:00 (CEST)Gotska sandoen, Suède (2589): Direction du vent: 14.08.2018 01:00:00 - 20.08.2018 01:00:00 (CEST)Gotska sandoen, Suède (2589): reduced air pressure: 14.08.2018 01:00:00 - 20.08.2018 01:00:00 (CEST)Gotska sandoen, Suède (2589): visibility: 14.08.2018 01:00:00 - 20.08.2018 01:00:00 (CEST)Gotska sandoen, Suède (2589): Quantités de précipitations: 14.08.2018 01:00:00 - 20.08.2018 01:00:00 (CEST)
Date & Time tt [°C] td [°C] ff [km/h] ff [knt] fx [km/h] fx [knt] dd ppp [hPa] vv [km] rr [mm]
20.08.2018 01:00:00 - - - - - - - - - -
20.08.2018 00:00:00 - - - - - - - - - -
19.08.2018 23:00:00 - - - - - - - - - -
19.08.2018 22:00:00 - - - - - - - - - -
19.08.2018 21:00:00 - - - - - - - - - -
19.08.2018 20:00:00 - - - - - - - - - -
19.08.2018 19:00:00 19,5 14,7 11 6 24 13 WSW 1012,9 38 0,0
19.08.2018 18:00:00 20,0 14,4 16 9 31 17 WSW 1013,0 44 0,0
19.08.2018 17:00:00 21,1 13,5 17 9 34 18 WSW 1013,3 32 0,0
19.08.2018 16:00:00 20,8 11,7 19 10 35 19 WSW 1013,4 33 0,0
19.08.2018 15:00:00 21,3 11,6 20 11 36 20 WSW 1013,5 35 0,0
19.08.2018 14:00:00 21,2 11,5 24 13 43 23 WSW 1013,4 25 0,0
19.08.2018 13:00:00 21,7 12,3 25 13 44 24 WSW 1013,1 36 0,0
19.08.2018 12:00:00 21,6 12,2 24 13 43 23 WSW 1012,9 34 0,0
19.08.2018 11:00:00 19,5 12,0 20 11 41 22 W 1012,7 33 0,0
19.08.2018 10:00:00 20,3 13,5 19 10 53 29 W 1012,4 33 0,0
19.08.2018 09:00:00 19,9 15,3 30 16 51 27 WSW 1012,2 42 0,0
19.08.2018 08:00:00 19,2 15,9 29 15 47 26 WSW 1012,0 44 0,0
19.08.2018 07:00:00 18,6 15,8 28 15 50 27 WSW 1011,9 42 0,0
19.08.2018 06:00:00 18,0 16,0 28 15 49 27 SW 1012,0 30 0,1
19.08.2018 05:00:00 17,4 16,1 30 16 50 27 WSW 1011,9 14 0,1
19.08.2018 04:00:00 18,9 15,4 28 15 59 32 WSW 1012,2 37 0,0
19.08.2018 03:00:00 19,0 15,3 32 17 55 30 SW 1012,1 43 0,0
19.08.2018 02:00:00 18,7 14,6 32 17 56 31 SW 1012,5 42 0,0
19.08.2018 01:00:00 18,5 14,8 29 16 54 29 WSW 1012,9 37 0,6
19.08.2018 00:00:00 19,2 14,5 31 17 55 30 WSW 1013,0 45 0,0
18.08.2018 23:00:00 19,3 15,6 22 12 37 20 SW 1013,3 45 0,0
18.08.2018 22:00:00 19,2 15,9 20 11 39 21 SW 1013,6 41 0,0
18.08.2018 21:00:00 19,2 15,9 23 13 45 25 SW 1014,1 36 0,0
18.08.2018 20:00:00 19,4 14,9 26 14 46 25 SW 1014,3 43 0,0
18.08.2018 19:00:00 19,2 14,5 24 13 43 23 SW 1014,3 46 0,0
18.08.2018 18:00:00 19,8 13,9 25 13 41 22 SW 1014,7 50 0,0
18.08.2018 17:00:00 20,7 13,4 21 11 36 20 SW 1015,1 42 0,0
18.08.2018 16:00:00 21,3 13,2 22 12 36 20 SW 1015,5 44 0,0
18.08.2018 15:00:00 21,6 14,0 20 11 35 19 SW 1015,6 35 0,0
18.08.2018 14:00:00 21,5 14,4 18 10 29 16 SW 1016,2 30 0,0
18.08.2018 13:00:00 21,4 14,5 11 6 21 11 SW 1016,2 35 0,0
18.08.2018 12:00:00 20,9 14,5 9 5 19 10 WSW 1016,4 38 0,0
18.08.2018 11:00:00 20,2 14,3 8 4 19 10 W 1016,6 34 0,0
18.08.2018 10:00:00 20,2 13,9 8 4 15 8 W 1016,7 35 0,0
18.08.2018 09:00:00 19,1 14,4 7 4 11 6 WNW 1016,5 48 0,0
18.08.2018 08:00:00 18,3 14,2 4 2 12 7 NW 1016,3 48 0,0
18.08.2018 07:00:00 17,8 14,5 7 4 15 8 NNW 1016,0 47 0,0
18.08.2018 06:00:00 17,3 14,0 9 5 18 10 NNW 1015,8 50 0,0
18.08.2018 05:00:00 17,1 14,9 8 4 18 10 NNW 1015,4 50 0,0
18.08.2018 04:00:00 16,9 15,8 10 5 21 11 WNW 1015,6 43 0,0
18.08.2018 03:00:00 16,5 15,5 8 5 26 14 W 1015,6 18 0,0
18.08.2018 02:00:00 16,7 16,2 13 7 24 13 W 1015,3 30 0,0
18.08.2018 01:00:00 18,0 17,0 12 7 27 15 WNW 1015,0 5 1,2
18.08.2018 00:00:00 19,4 17,9 13 7 24 13 W 1014,8 23 0,0
17.08.2018 23:00:00 19,7 16,5 15 8 30 16 S 1014,4 50 0,0
17.08.2018 22:00:00 19,7 16,5 18 10 34 18 S 1014,5 48 0,0
17.08.2018 21:00:00 20,2 16,8 20 11 42 23 S 1014,4 49 0,0
17.08.2018 20:00:00 20,2 16,6 22 12 45 24 S 1014,1 41 0,0
17.08.2018 19:00:00 20,5 17,1 23 12 47 25 S 1014,0 44 0,0
17.08.2018 18:00:00 21,3 16,7 29 16 51 28 S 1013,7 50 0,0
17.08.2018 17:00:00 22,4 16,7 25 14 53 29 S 1014,2 49 0,0
17.08.2018 16:00:00 23,1 16,4 27 14 61 33 S 1014,7 43 0,0
17.08.2018 15:00:00 23,6 16,4 25 13 52 28 S 1015,1 36 0,0
17.08.2018 14:00:00 24,3 16,0 26 14 46 25 S 1015,6 36 0,0
17.08.2018 13:00:00 24,5 17,0 19 10 40 21 S 1015,9 35 0,0
17.08.2018 12:00:00 24,4 17,4 22 12 39 21 S 1016,1 38 0,0
17.08.2018 11:00:00 22,9 17,8 19 10 37 20 S 1016,4 47 0,0
17.08.2018 10:00:00 22,1 18,1 17 9 41 22 S 1016,4 37 0,0
17.08.2018 09:00:00 20,8 17,8 20 11 39 21 S 1016,5 45 0,0
17.08.2018 08:00:00 19,7 16,7 20 11 36 20 S 1016,5 50 0,0
17.08.2018 07:00:00 19,0 16,4 16 9 28 15 S 1016,7 48 0,0
17.08.2018 06:00:00 18,8 17,1 16 9 29 15 S 1016,7 30 0,0
17.08.2018 05:00:00 18,4 16,7 16 9 34 18 S 1016,7 20 0,0
17.08.2018 04:00:00 18,4 16,6 17 9 36 19 SSW 1016,7 19 0,0
17.08.2018 03:00:00 18,6 16,9 18 10 36 20 SSW 1016,8 16 0,0
17.08.2018 02:00:00 18,7 17,4 17 9 38 20 S 1016,7 17 0,0
17.08.2018 01:00:00 18,5 17,3 18 10 36 19 S 1016,9 15 0,0
17.08.2018 00:00:00 18,8 17,5 18 10 34 18 S 1017,0 14 0,0
16.08.2018 23:00:00 18,6 17,3 18 10 35 19 S 1016,7 15 0,0
16.08.2018 22:00:00 19,0 17,3 19 10 35 19 S 1016,7 26 0,0
16.08.2018 21:00:00 19,2 17,0 16 9 35 19 S 1016,7 40 0,0
16.08.2018 20:00:00 19,7 16,6 15 8 28 15 S 1016,5 50 0,0
16.08.2018 19:00:00 20,4 16,0 15 8 27 14 S 1016,6 50 0,0
16.08.2018 18:00:00 21,2 16,8 15 8 31 17 S 1016,9 50 0,0
16.08.2018 17:00:00 21,4 17,2 16 8 32 18 S 1017,1 49 0,0
16.08.2018 16:00:00 22,4 17,1 19 10 37 20 S 1017,3 50 0,0
16.08.2018 15:00:00 23,1 16,6 19 10 38 20 S 1017,4 44 0,0
16.08.2018 14:00:00 22,3 16,8 21 12 41 22 S 1017,7 43 0,0
16.08.2018 13:00:00 21,3 16,5 21 11 41 22 S 1017,6 48 0,0
16.08.2018 12:00:00 21,5 17,1 18 10 34 18 S 1017,6 40 0,0
16.08.2018 11:00:00 21,0 16,8 16 9 31 17 S 1017,8 46 0,0
16.08.2018 10:00:00 20,5 16,9 16 9 31 17 SSW 1017,5 44 0,0
16.08.2018 09:00:00 19,5 16,5 14 7 28 15 S 1017,2 50 0,0
16.08.2018 08:00:00 18,5 16,8 14 7 24 13 S 1017,0 50 0,0
16.08.2018 07:00:00 17,1 16,6 10 6 18 10 S 1017,1 50 0,0
16.08.2018 06:00:00 15,2 15,2 8 4 15 8 SSW 1016,8 50 0,0
16.08.2018 05:00:00 13,7 13,7 9 5 14 8 SSW 1016,6 40 0,0
16.08.2018 04:00:00 12,4 12,4 9 5 12 6 SW 1016,5 21 0,0
16.08.2018 03:00:00 12,4 12,4 7 4 10 5 SW 1016,2 16 0,0
16.08.2018 02:00:00 13,0 13,0 7 4 13 7 SW 1016,3 18 0,0
16.08.2018 01:00:00 12,2 12,0 8 4 11 6 WSW 1016,2 27 0,0
16.08.2018 00:00:00 12,3 11,8 4 2 6 3 WSW 1015,8 38 0,0
15.08.2018 23:00:00 12,9 12,1 5 3 7 4 W 1015,7 50 0,0
15.08.2018 22:00:00 13,8 12,7 4 2 6 4 WNW 1015,2 50 0,0
15.08.2018 21:00:00 15,8 13,3 4 2 12 6 NW 1014,8 50 0,0
15.08.2018 20:00:00 16,3 14,0 5 3 10 6 NW 1014,3 50 0,0
15.08.2018 19:00:00 17,4 14,5 6 3 11 6 N 1013,8 50 0,0
15.08.2018 18:00:00 17,9 14,8 6 3 16 9 N 1013,5 50 0,0
15.08.2018 17:00:00 18,2 15,3 9 5 21 12 N 1013,2 46 0,0
15.08.2018 16:00:00 18,7 15,8 10 5 26 14 N 1012,6 44 0,0
15.08.2018 15:00:00 17,8 16,3 10 5 26 14 NNE 1012,1 35 0,0
15.08.2018 14:00:00 17,4 16,4 13 7 27 14 NNE 1011,2 24 0,0
15.08.2018 13:00:00 18,0 17,0 9 5 24 13 NNE 1010,2 21 0,0
15.08.2018 12:00:00 19,0 17,7 8 4 19 10 N 1009,7 41 0,1
15.08.2018 11:00:00 18,2 17,9 8 5 24 13 NNE 1009,0 9 3,9
15.08.2018 10:00:00 20,9 17,3 6 4 12 7 NE 1008,2 50 0,0
15.08.2018 09:00:00 19,0 16,6 6 4 14 8 NE 1007,7 50 0,0
15.08.2018 08:00:00 19,1 17,1 8 4 17 9 NNE 1007,2 49 0,0
15.08.2018 07:00:00 17,7 17,1 7 4 19 10 NNE 1006,8 50 0,0
15.08.2018 06:00:00 16,6 16,4 8 5 19 10 NNE 1006,4 33 0,0
15.08.2018 05:00:00 16,2 16,0 7 4 16 9 NNE 1006,1 22 0,0
15.08.2018 04:00:00 16,4 16,2 8 4 21 11 NNE 1006,1 25 0,0
15.08.2018 03:00:00 16,3 16,1 7 4 14 8 NE 1006,0 13 0,0
15.08.2018 02:00:00 16,1 15,9 5 3 15 8 ENE 1006,3 8 0,0
15.08.2018 01:00:00 16,2 16,0 8 4 16 9 E 1006,4 10 0,0
15.08.2018 00:00:00 16,3 16,1 5 3 21 12 E 1006,5 12 0,0
14.08.2018 23:00:00 15,8 15,6 12 7 20 11 E 1006,4 10 0,0
14.08.2018 22:00:00 16,0 15,7 9 5 16 9 ESE 1006,9 11 0,0
14.08.2018 21:00:00 16,1 15,6 8 4 15 8 SE 1007,3 14 0,0
14.08.2018 20:00:00 16,8 16,5 7 4 11 6 SSE 1007,5 11 0,0
14.08.2018 19:00:00 16,9 16,6 5 3 10 5 ESE 1007,5 8 0,0
14.08.2018 18:00:00 17,0 16,7 6 3 13 7 E 1007,7 8 0,8
14.08.2018 17:00:00 17,9 16,1 7 4 22 12 ESE 1008,1 26 0,0
14.08.2018 16:00:00 19,3 15,0 9 5 22 12 ESE 1008,5 50 0,0
14.08.2018 15:00:00 18,7 13,8 13 7 26 14 E 1009,0 50 0,0
14.08.2018 14:00:00 18,2 13,5 10 5 23 12 E 1009,4 50 0,0
14.08.2018 13:00:00 17,8 10,9 10 5 20 11 ESE 1009,9 50 0,0
14.08.2018 12:00:00 17,6 12,1 9 5 21 12 SE 1010,1 50 0,0
14.08.2018 11:00:00 17,8 11,8 8 5 24 13 SE 1010,4 50 0,0
14.08.2018 10:00:00 18,1 12,3 11 6 21 11 SE 1010,4 50 0,0
14.08.2018 09:00:00 18,4 12,4 6 3 13 7 SSE 1010,4 50 0,4
14.08.2018 08:00:00 17,2 11,7 4 2 9 5 SE 1010,3 50 0,0
14.08.2018 07:00:00 14,9 11,7 5 3 9 5 SE 1010,5 50 0,0
14.08.2018 06:00:00 12,1 11,2 6 4 9 5 SSE 1010,7 50 0,0
14.08.2018 05:00:00 10,9 10,4 6 4 9 5 SSE 1010,8 50 0,0
14.08.2018 04:00:00 10,5 10,0 3 2 8 4 SSE 1010,7 50 0,0
14.08.2018 03:00:00 9,8 9,3 6 3 7 4 SSE 1010,9 50 0,0
14.08.2018 02:00:00 10,0 9,1 5 3 6 3 SE 1010,9 50 0,0
14.08.2018 01:00:00 10,1 9,0 3 2 5 3 SSE 1010,9 50 0,0

tt = Température de l'air
td = dewpoint
ff = Vitesse du vent
fx = gusts
dd = Direction du vent
ppp = reduced air pressure
vv = visibility
rr = Quantités de précipitations

stations d'obs. à proximité